Location: Saint-Usage
(47.1052°N, 5.2587°E)
Time: 01:34:45
(UTC+01:00)

NOAA 19 - Pass Details

Date: 06 December 2021
Orbit: 841 x 860 km, 99.2° (Epoch: 17 January)

Event Time Altitude Azimuth Distance (km) Brightness Sun altitude
Rises 17:31:06 0° 111° (ESE) 3,393 7.9 -6.9°
Reaches altitude 10° 17:34:19 10° 91° (E) 2,465 7.1 -7.4°
Maximum altitude 17:37:35 16° 54° (NE) 2,053 6.6 -7.9°
Drops below altitude 10° 17:40:51 10° 17° (NNE) 2,479 7.3 -8.5°
Sets 17:44:05 0° 358° (N) 3,423 8.1 -9.0°
